| time (UTC) | temp F | wind direction | speed knots | gust knots | rain 1hr in | rain 24hr in | rain mn in | humidity % | barometer mb |
| 20260509162003 | 46 | 0 | 0.0 | 0.0 | 0.00 | 0.00 | 0.00 | 78 | 1009.3 |
| 20260509161003 | 46 | 0 | 0.0 | 0.0 | 0.00 | 0.00 | 0.00 | 79 | 1009.5 |
| 20260509160215 | 46 | 0 | 0.0 | 0.0 | 0.00 | 0.00 | 0.00 | 79 | 1009.2 |
| 20260509155216 | 46 | 0 | 0.0 | 0.0 | 0.00 | 0.00 | 0.00 | 79 | 1009.3 |
| 20260509154003 | 47 | 0 | 0.0 | 0.0 | 0.00 | 0.00 | 0.00 | 79 | 1009.8 |
| 20260509153004 | 47 | 0 | 0.0 | 0.0 | 0.00 | 0.00 | 0.00 | 79 | 1009.4 |
| 20260509152214 | 47 | 0 | 0.0 | 0.0 | 0.00 | 0.00 | 0.00 | 80 | 1009.5 |
| 20260509151004 | 47 | 225 | 0.0 | 3.5 | 0.00 | 0.00 | 0.00 | 81 | 1009.7 |
| 20260509150004 | 47 | 0 | 0.0 | 0.0 | 0.00 | 0.00 | 0.00 | 82 | 1009.9 |
| 20260509145003 | 46 | 357 | 0.0 | 7.8 | 0.00 | 0.00 | 0.00 | 82 | 1010.1 |
| 20260509144213 | 46 | 353 | 0.0 | 7.8 | 0.00 | 0.00 | 0.00 | 80 | 1010.0 |
| 20260509143004 | 46 | 0 | 0.0 | 0.0 | 0.00 | 0.00 | 0.00 | 80 | 1010.4 |
| 20260509142003 | 46 | 0 | 0.0 | 0.0 | 0.00 | 0.00 | 0.00 | 80 | 1010.5 |
| 20260509141003 | 46 | 0 | 0.0 | 0.0 | 0.00 | 0.00 | 0.00 | 79 | 1010.6 |
| 20260509140005 | 46 | 0 | 0.0 | 0.0 | 0.00 | 0.00 | 0.00 | 79 | 1010.7 |
| 20260509135004 | 46 | 0 | 0.0 | 0.0 | 0.00 | 0.00 | 0.00 | 79 | 1010.7 |
| 20260509134003 | 46 | 0 | 0.0 | 0.0 | 0.00 | 0.00 | 0.00 | 79 | 1010.9 |
| 20260509133004 | 46 | 0 | 0.0 | 0.0 | 0.00 | 0.00 | 0.00 | 79 | 1011.0 |
| 20260509132004 | 47 | 0 | 0.0 | 0.0 | 0.00 | 0.00 | 0.00 | 80 | 1011.1 |
| 20260509131003 | 47 | 0 | 0.0 | 0.0 | 0.00 | 0.00 | 0.00 | 81 | 1011.3 |
| 20260509130004 | 47 | 0 | 0.0 | 0.0 | 0.00 | 0.00 | 0.00 | 81 | 1011.6 |
| 20260509125003 | 47 | 0 | 0.0 | 0.0 | 0.00 | 0.00 | 0.00 | 82 | 1011.5 |
| 20260509124214 | 47 | 0 | 0.0 | 0.0 | 0.00 | 0.00 | 0.00 | 82 | 1011.7 |
| 20260509123003 | 47 | 0 | 0.0 | 0.0 | 0.00 | 0.00 | 0.00 | 82 | 1011.6 |
| 20260509122004 | 47 | 0 | 0.0 | 0.0 | 0.00 | 0.00 | 0.00 | 82 | 1011.7 |
| 20260509121003 | 47 | 0 | 0.0 | 0.0 | 0.00 | 0.00 | 0.00 | 82 | 1011.8 |
| 20260509120004 | 47 | 0 | 0.0 | 0.0 | 0.00 | 0.00 | 0.00 | 82 | 1011.9 |
| 20260509115004 | 47 | 0 | 0.0 | 0.0 | 0.00 | 0.00 | 0.00 | 82 | 1011.7 |
| 20260509114004 | 47 | 0 | 0.0 | 0.0 | 0.00 | 0.00 | 0.00 | 82 | 1011.7 |
| 20260509113003 | 47 | 0 | 0.0 | 0.0 | 0.00 | 0.00 | 0.00 | 82 | 1012.0 |
| 20260509112216 | 47 | 0 | 0.0 | 0.0 | 0.00 | 0.00 | 0.00 | 82 | 1012.0 |
| 20260509111003 | 47 | 0 | 0.0 | 0.0 | 0.00 | 0.00 | 0.00 | 82 | 1011.9 |
| 20260509110213 | 47 | 0 | 0.0 | 0.0 | 0.00 | 0.00 | 0.00 | 82 | 1012.2 |
| 20260509105004 | 47 | 0 | 0.0 | 0.0 | 0.00 | 0.00 | 0.00 | 82 | 1012.0 |
| 20260509104004 | 47 | 0 | 0.0 | 0.0 | 0.00 | 0.00 | 0.00 | 82 | 1011.8 |
| 20260509103003 | 47 | 0 | 0.0 | 0.0 | 0.00 | 0.00 | 0.00 | 82 | 1011.5 |
| 20260509102003 | 48 | 0 | 0.0 | 0.0 | 0.00 | 0.00 | 0.00 | 82 | 1011.7 |
| 20260509101004 | 48 | 0 | 0.0 | 0.0 | 0.00 | 0.00 | 0.00 | 82 | 1011.6 |
| 20260509100004 | 48 | 0 | 0.0 | 0.0 | 0.00 | 0.00 | 0.00 | 81 | 1011.4 |
| 20260509095215 | 48 | 0 | 0.0 | 0.0 | 0.00 | 0.00 | 0.00 | 81 | 1011.5 |
| 20260509094004 | 49 | 0 | 0.0 | 0.0 | 0.00 | 0.00 | 0.00 | 81 | 1011.7 |
| 20260509093003 | 49 | 0 | 0.0 | 0.0 | 0.00 | 0.00 | 0.00 | 82 | 1011.2 |
| 20260509092003 | 49 | 0 | 0.0 | 0.0 | 0.00 | 0.00 | 0.00 | 82 | 1011.3 |
| 20260509091214 | 50 | 0 | 0.0 | 0.0 | 0.00 | 0.00 | 0.00 | 82 | 1011.5 |
| 20260509090003 | 50 | 0 | 0.0 | 0.0 | 0.00 | 0.00 | 0.00 | 81 | 1011.4 |
| 20260509085215 | 50 | 0 | 0.0 | 0.0 | 0.00 | 0.00 | 0.00 | 81 | 1011.5 |
| 20260509084004 | 51 | 0 | 0.0 | 0.0 | 0.00 | 0.00 | 0.00 | 81 | 1011.5 |
| 20260509083003 | 51 | 0 | 0.0 | 0.0 | 0.00 | 0.00 | 0.00 | 81 | 1011.4 |
| 20260509082003 | 51 | 0 | 0.0 | 0.0 | 0.00 | 0.00 | 0.00 | 80 | 1011.2 |
| 20260509081214 | 51 | 0 | 0.0 | 0.0 | 0.00 | 0.00 | 0.00 | 80 | 1011.3 |
| 20260509080004 | 51 | 0 | 0.0 | 0.0 | 0.00 | 0.00 | 0.00 | 80 | 1011.3 |
| 20260509075003 | 52 | 0 | 0.0 | 0.0 | 0.00 | 0.00 | 0.00 | 79 | 1011.4 |
| 20260509074004 | 52 | 0 | 0.0 | 0.0 | 0.00 | 0.00 | 0.00 | 79 | 1010.9 |
| 20260509073004 | 53 | 0 | 0.0 | 0.0 | 0.00 | 0.00 | 0.00 | 78 | 1010.9 |
| 20260509072003 | 53 | 0 | 0.0 | 0.0 | 0.00 | 0.00 | 0.00 | 78 | 1010.8 |
| 20260509071004 | 54 | 0 | 0.0 | 0.0 | 0.00 | 0.00 | 0.00 | 78 | 1010.5 |
| 20260509070216 | 54 | 0 | 0.0 | 0.0 | 0.00 | 0.00 | 0.00 | 78 | 1010.5 |
| 20260509065003 | 55 | 0 | 0.0 | 0.0 | 0.00 | 0.00 | 0.00 | 79 | 1010.5 |
| 20260509064003 | 56 | 0 | 0.0 | 0.0 | 0.00 | 0.00 | 0.00 | 78 | 1010.3 |
| 20260509063004 | 56 | 0 | 0.0 | 0.0 | 0.00 | 0.00 | 0.00 | 78 | 1010.4 |
| 20260509062003 | 56 | 360 | 0.0 | 0.9 | 0.00 | 0.00 | 0.00 | 78 | 1010.4 |
| 20260509061003 | 56 | 360 | 0.0 | 1.7 | 0.00 | 0.00 | 0.00 | 78 | 1010.6 |
| 20260509060216 | 56 | 336 | 0.0 | 3.5 | 0.00 | 0.00 | 0.00 | 78 | 1010.6 |
| 20260509055003 | 57 | 0 | 0.0 | 0.0 | 0.00 | 0.00 | 0.00 | 78 | 1010.4 |
| 20260509054004 | 57 | 0 | 0.0 | 0.0 | 0.00 | 0.00 | 0.00 | 79 | 1010.8 |
| 20260509053214 | 57 | 345 | 0.0 | 6.1 | 0.00 | 0.00 | 0.00 | 78 | 1010.8 |
| 20260509052215 | 57 | 354 | 0.0 | 12.2 | 0.00 | 0.00 | 0.00 | 77 | 1010.8 |
| 20260509051216 | 58 | 2 | 0.0 | 17.4 | 0.00 | 0.00 | 0.00 | 77 | 1010.5 |
| 20260509050004 | 58 | 341 | 2.6 | 17.4 | 0.00 | 0.00 | 0.00 | 76 | 1010.6 |
| 20260509045003 | 58 | 355 | 0.0 | 20.9 | 0.00 | 0.00 | 0.00 | 76 | 1010.7 |
| 20260509044003 | 58 | 360 | 0.0 | 0.9 | 0.00 | 0.00 | 0.00 | 76 | 1010.9 |
| 20260509043215 | 58 | 0 | 0.0 | 0.0 | 0.00 | 0.00 | 0.00 | 75 | 1010.7 |
| 20260509042216 | 59 | 0 | 0.0 | 0.0 | 0.00 | 0.00 | 0.00 | 75 | 1011.0 |
| 20260509041217 | 59 | 0 | 0.0 | 0.0 | 0.00 | 0.01 | 0.00 | 73 | 1010.8 |
| 20260509040004 | 60 | 0 | 0.0 | 0.0 | 0.00 | 0.01 | 0.00 | 72 | 1010.7 |
| 20260509035003 | 60 | 338 | 0.0 | 18.2 | 0.00 | 0.01 | 0.00 | 72 | 1010.8 |
| 20260509034215 | 61 | 343 | 1.7 | 19.1 | 0.00 | 0.01 | 0.00 | 71 | 1010.8 |
| 20260509033004 | 61 | 8 | 1.7 | 17.4 | 0.00 | 0.01 | 0.00 | 69 | 1010.8 |
| 20260509032003 | 62 | 346 | 0.0 | 56.5 | 0.00 | 0.01 | 0.00 | 69 | 1010.7 |
| 20260509031003 | 62 | 353 | 1.7 | 36.5 | 0.00 | 0.01 | 0.00 | 68 | 1010.8 |
| 20260509030004 | 62 | 349 | 0.9 | 9.6 | 0.00 | 0.01 | 0.00 | 68 | 1011.0 |
| 20260509025004 | 62 | 312 | 0.9 | 14.8 | 0.00 | 0.01 | 0.00 | 67 | 1010.8 |
| 20260509024003 | 62 | 15 | 4.3 | 14.8 | 0.00 | 0.01 | 0.00 | 66 | 1010.8 |
| 20260509023004 | 63 | 357 | 4.3 | 18.2 | 0.00 | 0.01 | 0.00 | 64 | 1010.5 |
| 20260509022217 | 63 | 1 | 7.0 | 22.6 | 0.00 | 0.01 | 0.00 | 63 | 1010.6 |
| 20260509021003 | 64 | 350 | 10.4 | 23.5 | 0.00 | 0.01 | 0.00 | 62 | 1010.5 |
| 20260509020003 | 64 | 2 | 5.2 | 20.0 | 0.00 | 0.01 | 0.00 | 62 | 1010.4 |
| 20260509015215 | 64 | 3 | 5.2 | 14.8 | 0.00 | 0.01 | 0.00 | 61 | 1010.6 |
| 20260509014004 | 65 | 347 | 2.6 | 13.9 | 0.00 | 0.01 | 0.00 | 61 | 1010.8 |
| 20260509013003 | 65 | 35 | 0.9 | 13.9 | 0.00 | 0.01 | 0.00 | 61 | 1011.1 |
| 20260509012004 | 66 | 349 | 0.9 | 14.8 | 0.00 | 0.01 | 0.00 | 61 | 1010.9 |
| 20260509011003 | 66 | 334 | 7.0 | 18.2 | 0.00 | 0.01 | 0.00 | 59 | 1011.3 |
| 20260509010003 | 66 | 243 | 0.9 | 4.3 | 0.00 | 0.01 | 0.00 | 56 | 1011.2 |
| 20260509005004 | 66 | 275 | 0.9 | 6.1 | 0.00 | 0.01 | 0.00 | 57 | 1011.4 |
| 20260509004003 | 66 | 261 | 1.7 | 10.4 | 0.00 | 0.01 | 0.00 | 59 | 1011.5 |
| 20260509003003 | 65 | 222 | 1.7 | 7.0 | 0.00 | 0.01 | 0.00 | 60 | 1011.4 |
| 20260509002004 | 65 | 154 | 1.7 | 6.1 | 0.00 | 0.01 | 0.00 | 61 | 1011.9 |
| 20260509001004 | 65 | 200 | 1.7 | 3.5 | 0.00 | 0.01 | 0.00 | 62 | 1011.9 |
| 20260509000004 | 65 | 205 | 1.7 | 6.1 | 0.00 | 0.01 | 0.00 | 63 | 1012.0 |
| 20260508235216 | 65 | 204 | 1.7 | 5.2 | 0.00 | 0.01 | 0.00 | 63 | 1011.7 |
| 20260508234003 | 65 | 209 | 1.7 | 7.0 | 0.00 | 0.01 | 0.00 | 64 | 1012.0 |
| 20260508233004 | 64 | 234 | 3.5 | 7.8 | 0.00 | 0.01 | 0.00 | 65 | 1012.2 |
| 20260508232214 | 64 | 222 | 3.5 | 6.1 | 0.00 | 0.01 | 0.00 | 68 | 1012.1 |
| 20260508231004 | 63 | 197 | 1.7 | 5.2 | 0.00 | 0.01 | 0.00 | 69 | 1011.9 |
| 20260508230004 | 62 | 214 | 0.9 | 3.5 | 0.00 | 0.01 | 0.00 | 71 | 1012.0 |
| 20260508225003 | 61 | 200 | 2.6 | 8.7 | 0.00 | 0.01 | 0.00 | 72 | 1012.0 |
| 20260508224218 | 61 | 185 | 0.9 | 8.7 | 0.00 | 0.01 | 0.00 | 72 | 1012.1 |
| 20260508223003 | 61 | 187 | 5.2 | 16.5 | 0.00 | 0.01 | 0.00 | 74 | 1012.4 |
| 20260508222003 | 60 | 201 | 7.0 | 20.9 | 0.00 | 0.01 | 0.00 | 80 | 1012.2 |
| 20260508221004 | 59 | 174 | 7.0 | 20.9 | 0.00 | 0.01 | 0.00 | 81 | 1012.2 |
| 20260508220003 | 58 | 193 | 5.2 | 16.5 | 0.00 | 0.01 | 0.00 | 81 | 1012.2 |
| 20260508215003 | 58 | 202 | 5.2 | 19.1 | 0.00 | 0.01 | 0.00 | 82 | 1012.0 |
| 20260508214004 | 58 | 194 | 6.1 | 28.7 | 0.00 | 0.01 | 0.00 | 82 | 1011.5 |
| 20260508213004 | 58 | 203 | 8.7 | 31.3 | 0.00 | 0.01 | 0.00 | 82 | 1011.7 |
| 20260508212003 | 58 | 191 | 7.0 | 31.3 | 0.00 | 0.01 | 0.00 | 82 | 1011.6 |
| 20260508211216 | 57 | 179 | 8.7 | 33.9 | 0.00 | 0.01 | 0.00 | 82 | 1011.9 |
| 20260508210004 | 57 | 195 | 7.0 | 16.5 | 0.00 | 0.01 | 0.00 | 83 | 1011.9 |
| 20260508205003 | 57 | 198 | 4.3 | 23.5 | 0.00 | 0.01 | 0.00 | 83 | 1011.4 |
| 20260508204003 | 57 | 194 | 7.0 | 20.0 | 0.00 | 0.01 | 0.00 | 83 | 1011.5 |
| 20260508203215 | 57 | 195 | 4.3 | 18.2 | 0.00 | 0.01 | 0.00 | 82 | 1011.4 |
| 20260508202003 | 56 | 173 | 10.4 | 33.0 | 0.00 | 0.01 | 0.00 | 82 | 1011.2 |
| 20260508201003 | 56 | 190 | 8.7 | 20.0 | 0.00 | 0.01 | 0.00 | 82 | 1010.9 |
| 20260508200004 | 56 | 181 | 4.3 | 20.0 | 0.00 | 0.01 | 0.00 | 82 | 1010.9 |
| 20260508195003 | 56 | 180 | 7.0 | 18.2 | 0.00 | 0.01 | 0.00 | 83 | 1010.4 |
| 20260508194003 | 56 | 147 | 7.0 | 23.5 | 0.00 | 0.01 | 0.00 | 82 | 1010.3 |
| 20260508193004 | 56 | 190 | 9.6 | 23.5 | 0.00 | 0.01 | 0.00 | 82 | 1010.1 |
| 20260508192003 | 56 | 176 | 7.0 | 36.5 | 0.00 | 0.01 | 0.00 | 82 | 1009.8 |
| 20260508191003 | 56 | 187 | 7.8 | 28.7 | 0.00 | 0.01 | 0.00 | 82 | 1009.5 |
| 20260508190004 | 56 | 193 | 12.2 | 35.6 | 0.00 | 0.01 | 0.00 | 81 | 1009.2 |
| 20260508185003 | 56 | 189 | 11.3 | 28.7 | 0.00 | 0.01 | 0.00 | 80 | 1008.8 |
| 20260508184215 | 56 | 172 | 7.8 | 74.7 | 0.00 | 0.01 | 0.00 | 79 | 1008.8 |
| 20260508183003 | 56 | 172 | 14.8 | 66.0 | 0.00 | 0.01 | 0.00 | 77 | 1008.5 |
| 20260508182004 | 56 | 184 | 26.9 | 66.0 | 0.00 | 0.01 | 0.00 | 75 | 1008.4 |
| 20260508181003 | 56 | 178 | 18.2 | 46.9 | 0.00 | 0.01 | 0.00 | 74 | 1008.1 |
| 20260508180004 | 57 | 185 | 18.2 | 53.9 | 0.00 | 0.01 | 0.00 | 72 | 1007.9 |
| 20260508175215 | 57 | 178 | 8.7 | 40.0 | 0.00 | 0.01 | 0.00 | 70 | 1007.8 |
| 20260508174003 | 56 | 209 | 13.0 | 29.5 | 0.00 | 0.01 | 0.00 | 65 | 1007.4 |
| 20260508173004 | 57 | 219 | 9.6 | 23.5 | 0.00 | 0.01 | 0.00 | 65 | 1006.8 |
| 20260508172218 | 57 | 179 | 4.3 | 21.7 | 0.00 | 0.01 | 0.00 | 63 | 1006.5 |
| 20260508171003 | 58 | 216 | 7.0 | 13.9 | 0.00 | 0.01 | 0.00 | 63 | 1006.3 |
| 20260508170003 | 59 | 212 | 0.0 | 26.9 | 0.00 | 0.01 | 0.00 | 63 | 1005.8 |
| 20260508165004 | 59 | 248 | 2.6 | 20.0 | 0.00 | 0.01 | 0.00 | 62 | 1006.2 |
| 20260508164003 | 59 | 234 | 7.0 | 20.0 | 0.00 | 0.01 | 0.00 | 64 | 1005.9 |
| 20260508163004 | 58 | 278 | 1.7 | 53.9 | 0.00 | 0.01 | 0.00 | 65 | 1005.8 |